Location: Unspecified
(42.1900°N, 71.3291°W)
Time: 18:13:26
(UTC-05:00)

Hubble Space Telescope - Visible Passes

Search period start: 20 February 2018 00:00
Search period end: 02 March 2018 00:00
Orbit: 537 x 541 km, 28.5° (Epoch: 20 February)

Date Brightness Start Highest point End Pass type
(mag) Time Alt. Az. Time Alt. Az. Time Alt. Az.
20 Feb 3.5 05:45:35 10° S 05:46:30 11° S 05:47:26 10° SSE visible
21 Feb 3.3 05:34:44 10° SSW 05:36:05 11° S 05:37:25 10° SSE visible
22 Feb 3.3 05:24:07 10° SSW 05:25:40 12° S 05:27:13 10° SSE visible
23 Feb 3.2 05:13:38 10° SSW 05:15:15 12° S 05:16:52 10° SSE visible
24 Feb 3.2 05:03:14 10° SSW 05:04:49 12° S 05:06:26 10° SSE visible
25 Feb 3.1 04:53:32 11° SSW 04:54:25 12° S 04:55:53 10° SSE visible
26 Feb 3.2 04:43:51 11° S 04:43:59 11° S 04:45:10 10° S visible
